sat.trackr.live / text

‹ back to catalog

SDA_1679

NORAD 65989 · 2025-230R

PAYLOAD ACTIVE UNKNOWN

§ Identity

Operator
Country
US
Launch date
2025-10-15
Launch site
AFWTR
Launch vehicle
Mass (kg)
RCS (m²)

External: N2YO · Heavens-Above · Gunter

§ Orbital elements

Epoch: 2026-05-24T22:56:37.772736Z

Period
103.98 min
Inclination
81.3037°
Eccentricity
0.0001969
Mean motion
13.84856189 rev/d
Perigee alt
945.3 km
Apogee alt
948.2 km
Semi-major
7,324.8 km
B*
1.0848e-4
RAAN
233.1567°
Arg perigee
256.7377°
Mean anomaly
103.3560°
Rev number
3,060

§ Raw data

SDA_16791 65989U 25230R   26144.95599274  .00000134  00000+0  10848-3 0  99972 65989  81.3037 233.1567 0001969 256.7377 103.3560 13.84856189 30600

JSON: /api/v1/satellites/65989 · /tle

For live sub-satellite position, see the globe view (requires WebGL).

§ Visibility from observer

Set your observer location to see the next 7 days of passes ≥ 10°. The values pass through the URL so the page stays shareable.

No JS? Fill the form by hand. The geolocation button needs JavaScript.